Flag for United Kingdom Weather past 2 weeks in Gloucester, England, United Kingdom

Now
63 °F

Scattered clouds.


Feels Like: 63 °F
Forecast: 38 / 63 °F
Wind: 7 mph from North

Location: Staverton Private

Current Time: May 26, 2015 at 4:05:05 PM

Latest Report: May 26, 2015 at 3:20 PM


Visibility: N/A

Pressure: 30.27 "Hg

Humidity: 59%

Dew point: 48 °F

Location of GloucesterLocation

Historic Weather in Gloucester — Graph

°F

Gloucester temperature yesterday

Maximum temperature yesterday: 61 °F (at 2:50 PM)
Minimum temperature yesterday: 54 °F (at 8:20 AM)
Average temperature yesterday: 59 °F

Past Weeks' High & Low Weather Summary

 TemperatureHumidityPressure
High68 °F (May 24, 3:50 PM)100% (May 18, 8:50 AM)30.33 "Hg (May 18, 8:50 AM)
Low41 °F (May 20, 6:50 AM)40% (May 11, 5:20 PM)29.56 "Hg (May 18, 10:50 AM)
Average57 °F68%30.08 "Hg
* Reported May 11 2:20 PM — May 26 2:50 PM, Gloucester, Weather by CustomWeather, © 2015

Note: Actual official high and low records may vary slightly from our data, if they occured in-between our weather recording intervals... More about our weather records

Advertising

Gloucester weather history for previous 24 hours

 ConditionsComfort  
Time TempWeatherWind HumidityBarometerVisibility
2:50 PM
Tue, May 26
61 °FPartly sunny.7 mph68%30.27 "HgN/A
2:20 PM61 °FScattered clouds.9 mph63%30.27 "HgN/A
1:50 PM61 °FPartly sunny.9 mph63%30.27 "HgN/A
1:20 PM61 °FPartly sunny.6 mph63%30.27 "HgN/A
12:50 PM61 °FPartly sunny.5 mph63%30.27 "HgN/A
12:20 PM59 °FPartly sunny.8 mph68%30.27 "HgN/A
11:50 AM59 °FPartly sunny.8 mph68%30.27 "HgN/A
11:20 AM57 °FPartly sunny.8 mph67%30.24 "HgN/A
10:20 AM57 °FPartly sunny.9 mph67%30.24 "HgN/A
9:50 AM57 °FPartly sunny.9 mph67%30.24 "HgN/A
9:20 AM55 °FPartly sunny.13 mph72%30.24 "HgN/A
8:50 AM55 °FScattered clouds.7 mph72%30.24 "HgN/A
8:20 AM54 °FScattered clouds.5 mph82%30.24 "HgN/A
7:50 AM54 °FScattered clouds.No wind88%30.24 "HgN/A
6:50 AM52 °FScattered clouds.No wind88%30.21 "HgN/A
6:50 PM
Mon, May 25
61 °FScattered clouds.5 mph63%30.12 "HgN/A
6:20 PM61 °FScattered clouds.5 mph68%30.12 "HgN/A
5:50 PM61 °FScattered clouds.No wind63%30.09 "HgN/A
5:20 PM61 °FScattered clouds.3 mph68%30.09 "HgN/A
4:50 PM61 °FScattered clouds.3 mph63%30.09 "HgN/A
4:20 PM61 °FScattered clouds.No wind68%30.09 "HgN/A
Weather by CustomWeather, © 2015

See weather overviewHow to use our weather pages